Tracking 22093 objects as of 18-Jan-2021
HD Live streaming from Space Station
objects crossing your sky now

STRV 1A

Track STRV 1A now!
10-day predictions
STRV 1A is classified as:


NORAD ID: 23125
Int'l Code: 1994-034B
Perigee: 231.5 km
Apogee: 25,679.4 km
Inclination: 7.4 °
Period: 445.6 minutes
Semi major axis: 19326 km
RCS: 0.2699 m2 (medium)
Launch date: June 17, 1994
Source: United Kingdom (UK)
Launch site: FRENCH GUIANA (FRGUI)
aabbcc
Your satellite tracking list
Your tracking list is empty




NASA's NSSDC Master Catalog

Two Line Element Set (TLE):
1 23125U 94034B   21017.39129760  .00007129  00000-0  65475-3 0  9990
2 23125   7.3872  99.2755 6583694 194.8085 128.0850  3.23127999268459
Source of the keplerian elements: AFSPC